Regional Weather Roundup
Issued by NWS Cleveland, OH

Home | Current Version | Previous Version | Graphics & Text | Print | Product List | Glossary On
Versions: 1 2 3 4 5 6 7 8 9 10 11 12 13 14 15 16 17 18 19 20 21 22 23 24 25 26 27 28 29 30 31 32 33 34 35 36 37 38 39 40 41 42 43 44 45 46 47 48 49 50
000
ASUS41 KCLE 220102
RWRCLE
OHIO REGIONAL WEATHER ROUNDUP
NATIONAL WEATHER SERVICE CLEVELAND, OH
900 PM EDT SUN SEP 21 2014

NOTE: "FAIR" INDICATES FEW OR NO CLOUDS BELOW 12,000 FEET WITH NO
SIGNIFICANT WEATHER AND/OR OBSTRUCTIONS TO VISIBILITY.

OHZ001>008-015>018-024>027-034-035-043-044-220200-
   NORTHWEST OHIO

CITY           SKY/WX    TMP DP  RH WIND       PRES   REMARKS
DEFIANCE       CLOUDY   N/A N/A N/A NW18      29.97R
FINDLAY        CLOUDY    57  51  80 NW16G25   29.93R
TOLEDO EXPRESS CLOUDY    55  48  77 NW13      29.95R
TOLEDO EXEC    CLOUDY    55  50  83 NW16G25   29.94R
LIMA           CLOUDY    58  51  78 NW13G26   29.96R
$$

OHZ009>014-019>023-028>033-038-089-220200-
   NORTHEAST OHIO

CITY           SKY/WX    TMP DP  RH WIND       PRES   REMARKS
CLE-HOPKINS    CLOUDY    57  52  83 NW20G30   29.87R
CLE-LAKEFRONT  CLOUDY    60  52  74 NW25G31   29.83R
CUY CO. ARPT   CLOUDY    59  55  88 NW15G25   29.84R
LORAIN-ELYRIA  CLOUDY    60  53  77 N15G24    29.88R
ASHTABULA      CLOUDY    57  53  86 NW12G20   29.82R
AKRON-CANTON   CLOUDY    61  50  67 W14G21    29.84R
WOOSTER        CLOUDY    60  51  72 NW20G28   29.87R
MANSFIELD      CLOUDY    56  53  90 W10G20    29.90R
YOUNGSTOWN     LGT RAIN  57  54  89 W9        29.81R
$$

OHZ042-051>053-060>062-070>072-077>081-220200-
  SOUTHWEST OHIO

CITY           SKY/WX    TMP DP  RH WIND       PRES   REMARKS
CINC-COVINGTON PTCLDY    64  47  53 NW16G24   29.99R
CINC-LUNKEN    CLEAR     64  47  53 NW9G16    29.99R
HAMILTON       PTCLDY    63  49  60 NW15G26   30.01R
DAYTON         MOCLDY    60  50  69 NW15      30.00R
WRIGHT-PAT AFB CLEAR     60  50  69 W13       29.98R
DAYTON GENERAL PTCLDY    61  48  62 NW12G24   29.99R
WILMINGTON     CLEAR     61  47  59 NW15      29.96R
$$

OHZ036-037-039>041-045>050-054>059-063>069-073>076-082>088-220200-
  CENTRAL AND SOUTHEAST OHIO

CITY           SKY/WX    TMP DP  RH WIND       PRES   REMARKS
COLUMBUS       PTCLDY    63  49  60 NW22      29.92R
OSU AIRPORT    MOCLDY    59  50  72 W13       29.94R
BOLTON FIELD   CLEAR     59  50  71 W15       29.95R
RICKENBACK AFB PTCLDY    61  48  62 NW13      29.94R
NEWARK         CLEAR     61  48  62 W13       29.91R
MARION         MOCLDY    59  50  72 NW15G23   29.92R
LANCASTER      MOCLDY    63  48  58 W8G21     29.93R
ZANESVILLE     CLEAR     63  46  54 W15G22    29.90R
NEW PHILLY     CLEAR     61  49  64 W9G20     29.87R
$$


USA.gov is the U.S. government's official web portal to all federal, state and local government web resources and services.